Location: Dead Woman Crossing
(43.5369°N, 106.3228°W)
Time: 01:52:40
(UTC+00:00)

BEESAT 2 - Pass Details

Date: 04 July 2022
Orbit: 481 x 508 km, 64.9° (Epoch: 07 August)

Event Time Altitude Azimuth Distance (km) Brightness Sun altitude
Rises 03:23:21 0° 302° (WNW) 2,623 ? -5.7°
Reaches altitude 10° 03:27:46 10° 255° (WSW) 1,729 ? -6.4°
Maximum altitude 03:28:00 10° 252° (WSW) 1,725 ? -6.4°
Drops below altitude 10° 03:28:14 10° 248° (WSW) 1,728 ? -6.4°
Sets 03:32:37 0° 201° (SSW) 2,601 ? -7.0°
